GW7623 Weather Reports


time (UTC)temp
F
wind
direction
speed
knots
gust
knots
rain 1hr
in
rain 24hr
in
rain mn
in
humidity
%
barometer
mb
20260906085612 88 85 1.7 3.5 0.00 0.00 0.00 55 1022.5
20260906084632 87 54 0.9 5.2 0.00 0.00 0.00 60 1022.4
20260906083612 87 70 0.9 3.5 0.00 0.00 0.00 57 1022.4
20260906082613 87 68 1.7 5.2 0.00 0.00 0.00 63 1022.3
20260906081611 85 357 0.9 3.5 0.00 0.00 0.00 63 1022.4
20260906080612 85 44 0.9 3.5 0.00 0.00 0.00 67 1022.2
20260906075611 83 53 0.9 5.2 0.00 0.00 0.00 74 1022.0
20260906074632 83 27 2.6 7.0 0.00 0.00 0.00 74 1022.0
20260906073612 84 65 2.6 9.6 0.00 0.00 0.00 75 1022.0
20260906072612 82 64 1.7 5.2 0.00 0.00 0.00 77 1021.8
20260906071611 81 35 1.7 5.2 0.00 0.00 0.00 78 1021.8
20260906070611 78 286 3.5 10.4 0.00 0.00 0.00 82 1021.8
20260906065611 78 8 1.7 5.2 0.00 0.00 0.00 83 1021.7
20260906064632 77 331 1.7 5.2 0.00 0.00 0.00 83 1021.6
20260906063612 77 288 1.7 5.2 0.00 0.00 0.00 83 1021.5
20260906062612 76 31 0.9 3.5 0.00 0.00 0.00 84 1021.5
20260906061612 75 283 1.7 7.0 0.00 0.00 0.00 86 1021.4
20260906060632 74 273 1.7 5.2 0.00 0.00 0.00 87 1021.3
20260906055611 74 340 0.9 5.2 0.00 0.00 0.00 88 1021.2
20260906054611 73 283 2.6 7.0 0.00 0.00 0.00 90 1021.1
20260906053611 73 287 1.7 5.2 0.00 0.00 0.00 90 1020.9
20260906052611 73 298 2.6 10.4 0.00 0.00 0.00 90 1020.9
20260906051611 73 245 2.6 7.0 0.00 0.00 0.00 91 1020.7
20260906050631 73 264 2.6 7.0 0.00 0.00 0.00 91 1020.7
20260906045611 73 263 2.6 7.0 0.00 0.00 0.00 92 1020.7
20260906044611 73 263 1.7 7.0 0.00 0.00 0.00 92 1020.6
20260906043611 73 283 2.6 9.6 0.00 0.00 0.00 93 1020.5
20260906042612 73 306 2.6 7.0 0.00 0.00 0.00 93 1020.5
20260906041611 74 347 1.7 5.2 0.00 0.00 0.00 94 1020.2
20260906040651 74 312 0.9 7.0 0.00 0.00 0.00 94 1020.2
20260906035612 74 331 0.9 5.2 0.00 0.00 0.00 94 1020.1
20260906034632 74 358 0.9 9.6 0.00 0.00 0.00 94 1020.0
20260906033612 74 63 1.7 7.0 0.00 0.00 0.00 94 1020.0
20260906032612 75 64 0.9 3.5 0.00 0.00 0.00 94 1019.9
20260906031611 75 52 1.7 5.2 0.00 0.00 0.00 94 1019.7
20260906030611 75 72 0.9 3.5 0.00 0.00 0.00 93 1019.8
20260906025632 75 326 0.9 3.5 0.00 0.00 0.00 94 1019.7
20260906024632 75 43 1.7 5.2 0.00 0.00 0.00 93 1019.8
20260906023611 75 57 1.7 5.2 0.00 0.00 0.00 93 1019.8
20260906022611 75 65 0.9 7.0 0.00 0.00 0.00 92 1019.8
20260906021612 75 359 1.7 9.6 0.00 0.00 0.00 92 1019.8
20260906020611 75 66 1.7 5.2 0.00 0.00 0.00 91 1019.6
20260906015611 75 74 0.9 5.2 0.00 0.00 0.00 91 1019.6
20260906014631 75 57 0.9 5.2 0.00 0.00 0.00 90 1019.5
20260906013612 75 290 0.9 3.5 0.00 0.00 0.00 89 1019.4
20260906012111 75 62 0.9 3.5 0.00 0.00 0.00 88 1019.3
20260906011111 75 61 0.9 3.5 0.00 0.00 0.00 88 1019.4
20260906010111 75 78 1.7 10.4 0.00 0.00 0.00 87 1019.3
20260906005112 75 84 0.9 5.2 0.00 0.00 0.00 86 1019.3
20260906004113 75 36 1.7 5.2 0.00 0.00 0.00 86 1019.2
20260906003112 75 318 0.9 5.2 0.00 0.00 0.00 84 1019.4
20260906002112 76 77 0.9 3.5 0.00 0.00 0.00 84 1019.2
20260906001112 76 282 1.7 7.0 0.00 0.00 0.00 83 1019.2
20260906000132 76 49 1.7 5.2 0.00 0.00 0.00 82 1019.1
20260905235111 77 320 0.9 3.5 0.00 0.00 0.00 82 1019.0
20260905234112 77 289 0.9 3.5 0.00 0.00 0.00 82 1019.1
20260905233111 78 304 1.7 3.5 0.00 0.00 0.00 81 1019.1
20260905232111 78 289 0.9 5.2 0.00 0.00 0.00 79 1019.0
20260905231112 79 0.0 0.0 0.00 0.00 0.00 78 1019.0
20260905230112 79 46 0.9 3.5 0.00 0.00 0.00 78 1018.9
20260905225152 78 42 0.9 3.5 0.00 0.00 0.00 78 1018.9
20260905224112 78 27 0.9 3.5 0.00 0.00 0.00 78 1018.9
20260905223112 78 43 0.9 1.7 0.00 0.00 0.00 79 1018.7
20260905222132 79 93 0.9 3.5 0.00 0.00 0.00 78 1018.7
20260905221112 79 35 0.9 1.7 0.00 0.00 0.00 78 1018.7
20260905220112 79 59 0.9 3.5 0.00 0.00 0.00 79 1018.6
20260905215132 78 25 0.9 3.5 0.00 0.00 0.00 79 1018.5
20260905214131 78 28 0.9 3.5 0.00 0.00 0.00 80 1018.6
20260905213132 78 64 0.9 3.5 0.00 0.00 0.00 80 1018.4
20260905212111 78 61 0.9 1.7 0.00 0.00 0.00 80 1018.4
20260905211112 78 36 1.7 3.5 0.00 0.00 0.00 80 1018.4
20260905210130 79 54 0.9 3.5 0.00 0.00 0.00 79 1018.3
20260905205111 79 52 0.9 3.5 0.00 0.00 0.00 79 1018.2
20260905204111 79 35 0.9 3.5 0.00 0.00 0.00 79 1018.3
20260905203111 79 20 0.9 3.5 0.00 0.00 0.00 79 1018.2
20260905202112 79 49 0.9 3.5 0.00 0.00 0.00 79 1018.3
20260905201152 79 24 0.9 3.5 0.00 0.00 0.00 79 1018.2
20260905200112 79 35 0.9 3.5 0.00 0.00 0.00 79 1018.1
20260905195131 79 61 0.9 3.5 0.00 0.00 0.00 79 1018.1
20260905194111 80 22 0.9 3.5 0.00 0.00 0.00 79 1018.1
20260905193112 80 54 1.7 3.5 0.00 0.00 0.00 78 1018.1
20260905192112 80 77 0.9 3.5 0.00 0.00 0.00 78 1017.8
20260905191112 80 27 1.7 5.2 0.00 0.00 0.00 78 1017.7
20260905190111 81 65 1.7 5.2 0.00 0.00 0.00 76 1017.7
20260905185111 82 36 0.9 5.2 0.00 0.00 0.00 75 1017.5
20260905184111 82 24 0.9 3.5 0.00 0.00 0.00 74 1017.4
20260905183152 82 345 0.9 5.2 0.00 0.00 0.00 74 1017.3
20260905182111 83 93 2.6 7.0 0.00 0.00 0.00 71 1017.1
20260905181111 83 8 1.7 7.0 0.00 0.00 0.00 69 1017.0
20260905180111 83 40 1.7 3.5 0.00 0.00 0.00 68 1017.0
20260905175111 84 310 2.6 10.4 0.00 0.00 0.00 68 1016.8
20260905174111 85 56 1.7 5.2 0.00 0.00 0.00 67 1016.7
20260905173131 86 299 1.7 7.0 0.00 0.00 0.00 67 1016.5
20260905172131 87 60 1.7 7.0 0.00 0.00 0.00 64 1016.5
20260905171111 88 85 1.7 5.2 0.00 0.00 0.00 61 1016.4
20260905170111 89 53 2.6 5.2 0.00 0.00 0.00 60 1016.3
20260905165151 91 66 2.6 5.2 0.00 0.00 0.00 53 1016.2
20260905164111 93 34 0.0 1.7 0.00 0.00 0.00 38 1016.0
20260905163111 93 320 0.9 3.5 0.00 0.00 0.00 38 1015.9
20260905162111 93 285 0.9 3.5 0.00 0.00 0.00 38 1015.8
20260905161131 94 232 1.7 5.2 0.00 0.00 0.00 38 1015.8
20260905160131 94 336 0.9 3.5 0.00 0.00 0.00 38 1015.8
20260905155111 94 29 0.9 3.5 0.00 0.00 0.00 38 1015.7
20260905154111 94 228 2.6 7.0 0.00 0.00 0.00 38 1015.7
20260905153131 93 279 1.7 5.2 0.00 0.00 0.00 38 1015.6
20260905152211 93 258 2.6 9.6 0.00 0.00 0.00 38 1015.6
20260905151132 93 272 2.6 9.6 0.00 0.00 0.00 38 1015.7
20260905150131 94 264 4.3 16.5 0.00 0.00 0.00 38 1015.7
20260905145112 94 272 3.5 10.4 0.00 0.00 0.00 38 1015.7
20260905144112 93 268 3.5 13.9 0.00 0.00 0.00 38 1015.7
20260905143112 93 282 3.5 7.0 0.00 0.00 0.00 38 1015.8
20260905142112 93 285 3.5 10.4 0.00 0.00 0.00 39 1015.8
20260905141111 93 270 1.7 7.0 0.00 0.00 0.00 39 1015.8
20260905140111 92 270 5.2 16.5 0.00 0.00 0.00 40 1016.0
20260905135111 93 288 1.7 7.0 0.00 0.00 0.00 39 1016.0
20260905134131 93 280 2.6 9.6 0.00 0.00 0.00 40 1016.1
20260905133111 92 269 6.1 13.9 0.00 0.00 0.00 40 1016.3
20260905132111 92 268 4.3 12.2 0.00 0.00 0.00 40 1016.3
20260905131111 92 253 6.1 16.5 0.00 0.00 0.00 39 1016.4
20260905130131 92 263 4.3 13.9 0.00 0.00 0.00 40 1016.5
20260905125111 92 252 4.3 12.2 0.00 0.00 0.00 39 1016.5
20260905124112 91 266 5.2 12.2 0.00 0.00 0.00 40 1016.6
20260905123112 91 276 4.3 9.6 0.00 0.00 0.00 40 1016.7
20260905122112 91 257 7.0 21.7 0.00 0.00 0.00 40 1016.8
20260905121111 91 269 4.3 12.2 0.00 0.00 0.00 38 1017.1
20260905120112 91 258 5.2 13.9 0.00 0.00 0.00 37 1017.2
20260905115111 91 268 5.2 12.2 0.00 0.00 0.00 38 1017.2
20260905114111 91 258 7.8 16.5 0.00 0.00 0.00 37 1017.1
20260905113111 90 265 6.1 13.9 0.00 0.00 0.00 36 1017.2
20260905112111 91 271 4.3 16.5 0.00 0.00 0.00 37 1017.2
20260905111111 90 249 5.2 12.2 0.00 0.00 0.00 38 1017.1
20260905110151 90 271 4.3 12.2 0.00 0.00 0.00 39 1017.1
20260905105111 90 289 6.1 16.5 0.00 0.00 0.00 40 1017.2
20260905104131 90 263 4.3 12.2 0.00 0.00 0.00 40 1017.3
20260905103111 89 271 6.1 13.9 0.00 0.00 0.00 41 1017.2
20260905102112 88 266 6.1 16.5 0.00 0.00 0.00 41 1017.2
20260905101111 88 266 7.0 19.1 0.00 0.00 0.00 44 1017.5
20260905100112 88 275 7.0 18.2 0.00 0.00 0.00 44 1017.4
20260905095112 87 254 7.0 21.7 0.00 0.00 0.00 45 1017.4
20260905094112 87 289 3.5 9.6 0.00 0.00 0.00 46 1017.4
20260905093111 86 258 3.5 10.4 0.00 0.00 0.00 47 1017.4
20260905092112 86 274 5.2 18.2 0.00 0.00 0.00 47 1017.6
20260905091152 85 264 5.2 16.5 0.00 0.00 0.00 50 1017.5